Location: Launay
(47.2429°N, 1.5727°E)
Time: 15:20:58
(UTC+00:00)

Meteor 1-27 Rocket - Pass Details

Date: 19 May 2025
Orbit: 829 x 908 km, 81.3° (Epoch: 17 June)

Event Time Altitude Azimuth Distance (km) Brightness Sun altitude
Exits shadow 22:30:53 41° 158° (SSE) 1,219 4.0 -20.4°
Maximum altitude 22:32:43 62° 96° (E) 944 3.8 -20.5°
Drops below altitude 10° 22:38:12 10° 17° (NNE) 2,457 6.9 -20.8°
Sets 22:40:37 0° 15° (NNE) 3,390 7.8 -21.0°
